• En España
  • Lista de países
  • Para 7 días
  • Temperatura del agua
  • Mapa Satelital
  • El tiempo en el mapa
  • Informadores
  • user-avatar
    Iniciar sesión

    Tiempo cada hora Osiyaly

    Hoy, 21 Junio, Jueves

    Tiempo Temperatura Precipitaciones Viento Presión Humedad
    00:00 +12°C° 0 mm 5 mps 739 mmHg 73%
    01:00 +12°C° 0 mm 5 mps 739 mmHg 73%
    02:00 +10°C° 0 mm 5 mps 739 mmHg 73%
    03:00 +10°C° 0 mm 5 mps 738 mmHg 77%
    04:00 +10°C° 0 mm 6 mps 739 mmHg 76%
    05:00 +11°C° 0 mm 6 mps 739 mmHg 74%
    06:00 +12°C° 0 mm 7 mps 739 mmHg 73%
    07:00 +13°C° 0,1 mm 8 mps 739 mmHg 68%
    08:00 +15°C° 0,1 mm 9 mps 739 mmHg 63%
    09:00 +16°C° 0 mm 10 mps 738 mmHg 59%
    10:00 +17°C° 0,1 mm 10 mps 738 mmHg 56%
    11:00 +18°C° 0,1 mm 10 mps 738 mmHg 54%
    12:00 +18°C° 0,1 mm 10 mps 738 mmHg 51%
    13:00 +19°C° 0,1 mm 9 mps 738 mmHg 53%
    14:00 +20°C° 0,1 mm 8 mps 739 mmHg 54%
    15:00 +18°C° 0 mm 8 mps 739 mmHg 57%
    16:00 +17°C° 0,4 mm 6 mps 739 mmHg 64%
    17:00 +16°C° 0,4 mm 5 mps 739 mmHg 71%
    18:00 +15°C° 0,4 mm 4 mps 739 mmHg 78%
    19:00 +14°C° 0 mm 4 mps 740 mmHg 78%
    20:00 +14°C° 0 mm 4 mps 740 mmHg 77%
    21:00 +14°C° 0 mm 4 mps 740 mmHg 77%
    22:00 +14°C° 0 mm 4 mps 740 mmHg 75%
    23:00 +14°C° 0 mm 5 mps 741 mmHg 73%

    Mañana, 22 Junio, Viernes

    Tiempo Temperatura Precipitaciones Viento Presión Humedad
    00:00 +14°C° 0 mm 5 mps 741 mmHg 71%
    01:00 +13°C° 0 mm 5 mps 741 mmHg 72%
    02:00 +13°C° 0 mm 5 mps 742 mmHg 72%
    03:00 +12°C° 0 mm 5 mps 743 mmHg 73%
    04:00 +13°C° 0 mm 6 mps 743 mmHg 72%
    05:00 +13°C° 0 mm 6 mps 743 mmHg 72%
    06:00 +14°C° 0 mm 6 mps 744 mmHg 72%
    07:00 +15°C° 0 mm 6 mps 744 mmHg 67%
    08:00 +17°C° 0 mm 6 mps 745 mmHg 62%
    09:00 +19°C° 0 mm 6 mps 745 mmHg 58%
    10:00 +20°C° 0 mm 6 mps 745 mmHg 55%
    11:00 +21°C° 0 mm 6 mps 745 mmHg 53%
    12:00 +22°C° 0 mm 6 mps 746 mmHg 51%
    13:00 +22°C° 0 mm 6 mps 746 mmHg 50%
    14:00 +23°C° 0 mm 6 mps 746 mmHg 50%
    15:00 +23°C° 0 mm 5 mps 746 mmHg 50%
    16:00 +23°C° 0 mm 4 mps 746 mmHg 55%
    17:00 +22°C° 0 mm 3 mps 746 mmHg 59%
    18:00 +22°C° 0 mm 3 mps 746 mmHg 63%
    19:00 +20°C° 0 mm 2 mps 746 mmHg 68%
    20:00 +18°C° 0 mm 2 mps 746 mmHg 73%
    21:00 +16°C° 0 mm 2 mps 747 mmHg 77%
    22:00 +16°C° 0 mm 2 mps 747 mmHg 78%
    23:00 +16°C° 0 mm 2 mps 747 mmHg 80%

    Pasado mañana, 23 Junio, Sábado

    Tiempo Temperatura Precipitaciones Viento Presión Humedad
    00:00 +15°C° 0 mm 1 mps 747 mmHg 81%
    01:00 +15°C° 0 mm 1 mps 747 mmHg 82%
    02:00 +15°C° 0 mm 1 mps 747 mmHg 84%
    03:00 +15°C° 0 mm 1 mps 747 mmHg 85%
    04:00 +16°C° 0 mm 1 mps 747 mmHg 84%
    05:00 +19°C° 0 mm 1 mps 747 mmHg 83%
    06:00 +19°C° 0 mm 2 mps 747 mmHg 81%
    07:00 +21°C° 0 mm 2 mps 747 mmHg 77%
    08:00 +24°C° 0 mm 2 mps 747 mmHg 72%
    09:00 +26°C° 0 mm 2 mps 747 mmHg 67%
    10:00 +27°C° 0,2 mm 2 mps 747 mmHg 65%
    11:00 +27°C° 0,2 mm 2 mps 747 mmHg 62%
    12:00 +28°C° 0,2 mm 3 mps 747 mmHg 60%
    13:00 +28°C° 0,3 mm 3 mps 747 mmHg 62%
    14:00 +28°C° 0,3 mm 3 mps 747 mmHg 63%
    15:00 +28°C° 0,3 mm 2 mps 747 mmHg 65%
    16:00 +28°C° 0,5 mm 2 mps 747 mmHg 70%
    17:00 +27°C° 0,5 mm 2 mps 747 mmHg 75%
    18:00 +27°C° 0,5 mm 1 mps 747 mmHg 79%
    19:00 +26°C° 0,1 mm 1 mps 747 mmHg 83%
    20:00 +24°C° 0,1 mm 1 mps 747 mmHg 87%
    21:00 +23°C° 0,1 mm 1 mps 747 mmHg 91%
    22:00 +22°C° 0,3 mm 1 mps 747 mmHg 92%
    23:00 +22°C° 0,3 mm 1 mps 748 mmHg 92%

    24 Junio, Domingo

    Tiempo Temperatura Precipitaciones Viento Presión Humedad
    00:00 +21°C° 0,3 mm 1 mps 748 mmHg 93%
    01:00 +21°C° 0 mm 1 mps 748 mmHg 93%
    02:00 +21°C° 0 mm 1 mps 748 mmHg 94%
    03:00 +18°C° 0 mm 0 mps 748 mmHg 94%
    04:00 +20°C° 0 mm 0 mps 748 mmHg 91%
    05:00 +21°C° 0 mm 0 mps 749 mmHg 89%
    06:00 +22°C° 0 mm 0 mps 749 mmHg 86%
    07:00 +24°C° 0 mm 0 mps 749 mmHg 80%
    08:00 +25°C° 0 mm 0 mps 749 mmHg 74%
    09:00 +27°C° 0 mm 0 mps 749 mmHg 69%
    10:00 +28°C° 0,2 mm 0 mps 749 mmHg 65%
    11:00 +28°C° 0,2 mm 0 mps 749 mmHg 62%
    12:00 +29°C° 0,2 mm 0 mps 749 mmHg 58%
    13:00 +29°C° 0,8 mm 0 mps 749 mmHg 59%
    14:00 +29°C° 0,8 mm 0 mps 749 mmHg 59%
    15:00 +29°C° 0,8 mm 0 mps 749 mmHg 59%
    16:00 +31°C° 0,3 mm 1 mps 749 mmHg 62%
    17:00 +30°C° 0,3 mm 1 mps 749 mmHg 65%
    18:00 +30°C° 0,3 mm 1 mps 749 mmHg 68%
    19:00 +28°C° 0 mm 1 mps 749 mmHg 73%
    20:00 +26°C° 0 mm 1 mps 750 mmHg 78%
    21:00 +24°C° 0 mm 1 mps 750 mmHg 82%
    22:00 +24°C° 0,1 mm 1 mps 750 mmHg 84%
    23:00 +23°C° 0,1 mm 1 mps 750 mmHg 86%

    25 Junio, Lunes

    Tiempo Temperatura Precipitaciones Viento Presión Humedad
    00:00 +22°C° 0,1 mm 1 mps 750 mmHg 88%
    01:00 +22°C° 0 mm 1 mps 750 mmHg 88%
    02:00 +22°C° 0 mm 1 mps 750 mmHg 88%
    03:00 +21°C° 0 mm 1 mps 750 mmHg 88%
    04:00 +23°C° 0 mm 1 mps 751 mmHg 85%
    05:00 +24°C° 0 mm 1 mps 751 mmHg 81%
    06:00 +23°C° 0 mm 0 mps 751 mmHg 78%
    07:00 +27°C° 0 mm 1 mps 751 mmHg 73%
    08:00 +28°C° 0 mm 1 mps 751 mmHg 67%
    09:00 +30°C° 0 mm 1 mps 751 mmHg 61%
    10:00 +31°C° 0 mm 1 mps 751 mmHg 58%
    11:00 +31°C° 0 mm 1 mps 751 mmHg 54%
    12:00 +32°C° 0 mm 1 mps 751 mmHg 51%
    13:00 +32°C° 0,3 mm 1 mps 751 mmHg 54%
    14:00 +31°C° 0,3 mm 1 mps 751 mmHg 57%
    15:00 +30°C° 0,3 mm 1 mps 751 mmHg 61%
    16:00 +30°C° 0,2 mm 1 mps 751 mmHg 63%
    17:00 +30°C° 0,2 mm 1 mps 751 mmHg 66%
    18:00 +29°C° 0,2 mm 1 mps 751 mmHg 68%
    19:00 +28°C° 0,2 mm 1 mps 751 mmHg 72%
    20:00 +26°C° 0,2 mm 1 mps 751 mmHg 75%
    21:00 +25°C° 0,2 mm 1 mps 751 mmHg 78%
    22:00 +24°C° 0,3 mm 2 mps 751 mmHg 81%
    23:00 +23°C° 0,3 mm 2 mps 751 mmHg 83%

    26 Junio, Martes

    Tiempo Temperatura Precipitaciones Viento Presión Humedad
    00:00 +21°C° 0,3 mm 2 mps 751 mmHg 86%
    01:00 +20°C° 0,2 mm 2 mps 752 mmHg 87%
    02:00 +20°C° 0,2 mm 2 mps 752 mmHg 88%
    03:00 +19°C° 0,2 mm 2 mps 752 mmHg 90%
    04:00 +20°C° 0 mm 2 mps 752 mmHg 88%
    05:00 +21°C° 0 mm 2 mps 752 mmHg 86%
    06:00 +23°C° 0 mm 2 mps 752 mmHg 84%
    07:00 +24°C° 0,1 mm 3 mps 753 mmHg 79%
    08:00 +26°C° 0,1 mm 3 mps 753 mmHg 74%
    09:00 +27°C° 0,1 mm 3 mps 753 mmHg 69%
    10:00 +28°C° 0 mm 3 mps 753 mmHg 64%
    11:00 +29°C° 0 mm 3 mps 753 mmHg 60%
    12:00 +30°C° 0 mm 3 mps 753 mmHg 56%
    13:00 +30°C° 0 mm 3 mps 753 mmHg 56%
    14:00 +30°C° 0 mm 3 mps 753 mmHg 57%
    15:00 +30°C° 0 mm 3 mps 753 mmHg 57%
    16:00 +29°C° 0,1 mm 2 mps 753 mmHg 61%
    17:00 +29°C° 0,1 mm 2 mps 753 mmHg 65%
    18:00 +28°C° 0,1 mm 2 mps 753 mmHg 69%
    19:00 +26°C° 0 mm 2 mps 753 mmHg 74%
    20:00 +25°C° 0 mm 2 mps 753 mmHg 79%
    21:00 +23°C° 0 mm 2 mps 754 mmHg 84%
    22:00 +21°C° 0 mm 2 mps 754 mmHg 85%
    23:00 +21°C° 0 mm 2 mps 754 mmHg 86%
    Mostrar más